User: anonymous   Login
Location: Newark
(41.0400°S, 62.7845°W)
Time: 12:28:35
(UTC+00:00)
Language:

Transit 2A - Orbit

View from above orbital plane
View from above orbital plane
View from above satellite
View from above satellite

Ground track
Ground track

The orbit data is extracted from the following two-line orbital elements,

1    45U 60007A   21341.98426461  .00000003  00000-0  27652-4 0  9992
2    45  66.6958  41.6674 0262441 283.2466  73.9485 14.33754881199907
Epoch (UTC): 07 December 2021 23:37:20
Eccentricity: 0.0262441
inclination: 66.6958°
perigee height: 591 km
apogee height: 967 km
right ascension of ascending node: 41.6674°
argument of perigee: 283.2466°
revolutions per day: 14.33754881
mean anomaly at epoch: 73.9485°
orbit number at epoch: 19990

The dashed part of the orbit path shows where the satellite is in the earth's shadow,  

DLR